Weather History for KOTG - September, 2013

Change the Weather History Date:

Wednesday, September 25, 2013

  Actual Average Record
Temperature  
Mean Temperature 62 °F -  
Max Temperature 75 °F 65 °F 86 °F (1999)
Min Temperature 48 °F 43 °F 30 °F (1985)
Degree Days  
Heating Degree Days 4    
Growing Degree Days 12 (Base 50)    
Moisture  
Dew Point 47 °F    
Average Humidity 59    
Maximum Humidity 82    
Minimum Humidity 36    
Precipitation  
Precipitation 0.00 in - - ()
Sea Level Pressure  
Sea Level Pressure 29.89 in    
Wind  
Wind Speed 6 mph (SE)    
Max Wind Speed 17 mph    
Max Gust Speed 24 mph    
Visibility 10 miles    
Events      
Averages and records for this station are not official NWS values.
T = Trace of Precipitation, MM = Missing Value Source: NWS Daily Summary

Daily Weather History Graph

Daily Weather History Graph

Search for Another Location

Airport or City:

Trip Planner

Search our weather history database for the weather conditions in past years. The results will help you decide how hot, cold, wet, or windy it might be!

Date:

Astronomy

Sep. 25, 2013 Rise Set
Actual Time 7:13 AM CDT 7:13 PM CDT
Civil Twilight 6:44 AM CDT 7:42 PM CDT
Nautical Twilight 6:11 AM CDT 8:15 PM CDT
Astronomical Twilight 5:37 AM CDT 8:49 PM CDT
Moon 11:11 PM CDT (9/25) 1:29 PM CDT (9/25)
Length of Visible Light 12h 57m
Length of Day
12h 00m
Waning Gibbous, 64% of the Moon is Illuminated
Sep 25
Waning Gibbous
Sep 26
Last Quarter
Oct 4
New
Oct 11
First Quarter
Oct 18
Full

Hourly Weather History & Observations

Time (CDT) Temp. Dew Point Humidity Pressure Visibility Wind Dir Wind Speed Gust Speed Precip Events Conditions
12:15 AM 53.6 °F 46.4 °F 77% 29.95 in 10.0 mi Calm Calm - N/A   Clear
12:35 AM 53.6 °F 46.4 °F 77% 29.95 in 10.0 mi ESE 3.5 mph - N/A   Clear
12:55 AM 53.6 °F 46.4 °F 77% 29.95 in 10.0 mi SE 3.5 mph - N/A   Clear
1:15 AM 53.6 °F 46.4 °F 77% 29.95 in 10.0 mi SSE 4.6 mph - N/A   Clear
1:35 AM 53.6 °F 46.4 °F 77% 29.95 in 10.0 mi Calm Calm - N/A   Clear
1:55 AM 51.8 °F 46.4 °F 82% 29.95 in 10.0 mi Calm Calm - N/A   Clear
2:15 AM 51.8 °F 46.4 °F 82% 29.95 in 8.0 mi Calm Calm - N/A   Clear
2:35 AM 51.8 °F 46.4 °F 82% 29.95 in 9.0 mi Calm Calm - N/A   Clear
2:55 AM 51.8 °F 44.6 °F 76% 29.95 in 10.0 mi Calm Calm - N/A   Clear
3:15 AM 51.8 °F 44.6 °F 76% 29.95 in 10.0 mi SSE 3.5 mph - N/A   Clear
3:35 AM 51.8 °F 46.4 °F 82% 29.95 in 10.0 mi SE 5.8 mph - N/A   Clear
3:55 AM 53.6 °F 46.4 °F 77% 29.95 in 10.0 mi Calm Calm - N/A   Clear
4:15 AM 51.8 °F 44.6 °F 76% 29.95 in 10.0 mi Calm Calm - N/A   Clear
4:35 AM 51.8 °F 44.6 °F 76% 29.95 in 10.0 mi South 3.5 mph - N/A   Clear
4:55 AM 53.6 °F 46.4 °F 77% 29.95 in 10.0 mi Calm Calm - N/A   Clear
5:15 AM 51.8 °F 44.6 °F 76% 29.94 in 10.0 mi Calm Calm - N/A   Clear
5:35 AM 50.0 °F 42.8 °F 76% 29.93 in 10.0 mi Calm Calm - N/A   Clear
5:55 AM 51.8 °F 44.6 °F 76% 29.94 in 10.0 mi Calm Calm - N/A   Clear
6:15 AM 51.8 °F 44.6 °F 76% 29.94 in 10.0 mi SSW 3.5 mph - N/A   Clear
6:35 AM 51.8 °F 44.6 °F 76% 29.94 in 10.0 mi South 3.5 mph - N/A   Clear
6:55 AM 51.8 °F 44.6 °F 76% 29.95 in 10.0 mi SSW 4.6 mph - N/A   Clear
7:15 AM 51.8 °F 44.6 °F 76% 29.95 in 10.0 mi South 3.5 mph - N/A   Clear
7:35 AM 48.2 °F 41.0 °F 76% 29.95 in 7.0 mi SE 4.6 mph - N/A   Clear
7:55 AM 48.2 °F 42.8 °F 82% 29.95 in 8.0 mi Calm Calm - N/A   Clear
8:15 AM 53.6 °F 46.4 °F 77% 29.95 in 8.0 mi South 6.9 mph - N/A   Clear
8:35 AM 57.2 °F 46.4 °F 67% 29.95 in 10.0 mi SSE 6.9 mph - N/A   Clear
8:55 AM 57.2 °F 46.4 °F 67% 29.94 in 10.0 mi SSE 6.9 mph - N/A   Clear
9:15 AM 60.8 °F 48.2 °F 63% 29.95 in 10.0 mi SSE 5.8 mph - N/A   Clear
9:35 AM 60.8 °F 48.2 °F 63% 29.95 in 10.0 mi SSE 9.2 mph - N/A   Clear
9:55 AM 62.6 °F 48.2 °F 59% 29.95 in 10.0 mi SE 9.2 mph - N/A   Clear
10:15 AM 64.4 °F 48.2 °F 56% 29.95 in 10.0 mi SSE 6.9 mph - N/A   Clear
10:35 AM 66.2 °F 48.2 °F 52% 29.95 in 10.0 mi SE 6.9 mph - N/A   Clear
10:55 AM 68.0 °F 48.2 °F 49% 29.94 in 10.0 mi SE 13.8 mph 17.3 mph N/A   Clear
11:15 AM 69.8 °F 48.2 °F 46% 29.95 in 10.0 mi SE 12.7 mph - N/A   Clear
11:35 AM 69.8 °F 48.2 °F 46% 29.94 in 10.0 mi SSE 13.8 mph - N/A   Clear
11:55 AM 71.6 °F 46.4 °F 41% 29.93 in 10.0 mi SSE 13.8 mph 20.7 mph N/A   Clear
12:15 PM 71.6 °F 46.4 °F 41% 29.93 in 10.0 mi SSE 12.7 mph 18.4 mph N/A   Clear
12:35 PM 71.6 °F 46.4 °F 41% 29.92 in 10.0 mi SSE 12.7 mph - N/A   Clear
12:55 PM 71.6 °F 46.4 °F 41% 29.91 in 10.0 mi SE 13.8 mph 21.9 mph N/A   Clear
1:15 PM 73.4 °F 46.4 °F 38% 29.90 in 10.0 mi South 15.0 mph 21.9 mph N/A   Clear
1:35 PM 73.4 °F 46.4 °F 38% 29.89 in 10.0 mi SE 15.0 mph 20.7 mph N/A   Clear
1:55 PM 73.4 °F 46.4 °F 38% 29.89 in 10.0 mi SE 15.0 mph 20.7 mph N/A   Clear
2:15 PM 73.4 °F 46.4 °F 38% 29.88 in 10.0 mi SSE 13.8 mph 21.9 mph N/A   Clear
2:35 PM 73.4 °F 46.4 °F 38% 29.86 in 10.0 mi SSE 15.0 mph 19.6 mph N/A   Clear
2:55 PM 75.2 °F 46.4 °F 36% 29.86 in 10.0 mi SE 13.8 mph 23.0 mph N/A   Clear
3:15 PM 75.2 °F 46.4 °F 36% 29.85 in 10.0 mi SSE 15.0 mph 24.2 mph N/A   Clear
3:35 PM 75.2 °F 46.4 °F 36% 29.84 in 10.0 mi SSE 13.8 mph 21.9 mph N/A   Clear
3:55 PM 75.2 °F 46.4 °F 36% 29.83 in 10.0 mi SSE 13.8 mph 21.9 mph N/A   Clear
4:15 PM 75.2 °F 46.4 °F 36% 29.82 in 10.0 mi SE 17.3 mph 20.7 mph N/A   Clear
4:35 PM 75.2 °F 46.4 °F 36% 29.82 in 10.0 mi SSE 12.7 mph 21.9 mph N/A   Clear
4:55 PM 75.2 °F 46.4 °F 36% 29.81 in 10.0 mi SSE 17.3 mph - N/A   Clear
5:15 PM 75.2 °F 48.2 °F 38% 29.81 in 10.0 mi SSE 10.4 mph 17.3 mph N/A   Clear
5:35 PM 75.2 °F 46.4 °F 36% 29.81 in 10.0 mi SSE 13.8 mph 19.6 mph N/A   Clear
5:55 PM 75.2 °F 46.4 °F 36% 29.81 in 10.0 mi SE 13.8 mph 21.9 mph N/A   Clear
6:15 PM 73.4 °F 46.4 °F 38% 29.81 in 10.0 mi SE 13.8 mph 19.6 mph N/A   Clear
6:35 PM 73.4 °F 46.4 °F 38% 29.80 in 10.0 mi SE 13.8 mph - N/A   Clear
6:55 PM 71.6 °F 46.4 °F 41% 29.80 in 10.0 mi SE 10.4 mph - N/A   Clear
7:15 PM 69.8 °F 46.4 °F 43% 29.80 in 10.0 mi SE 8.1 mph - N/A   Clear
7:35 PM 66.2 °F 46.4 °F 49% 29.80 in 10.0 mi SE 6.9 mph - N/A   Clear
7:55 PM 64.4 °F 46.4 °F 52% 29.81 in 10.0 mi SE 6.9 mph - N/A   Clear
8:15 PM 62.6 °F 46.4 °F 55% 29.80 in 10.0 mi ESE 8.1 mph - N/A   Clear
8:35 PM 62.6 °F 48.2 °F 59% 29.81 in 10.0 mi SE 9.2 mph - N/A   Clear
8:55 PM 62.6 °F 48.2 °F 59% 29.81 in 10.0 mi ESE 10.4 mph - N/A   Clear
9:15 PM 62.6 °F 48.2 °F 59% 29.81 in 10.0 mi SE 9.2 mph - N/A   Clear
9:35 PM 62.6 °F 50.0 °F 63% 29.82 in 10.0 mi SE 8.1 mph - N/A   Clear
9:55 PM 62.6 °F 50.0 °F 63% 29.83 in 10.0 mi SE 6.9 mph - N/A   Clear
10:15 PM 60.8 °F 50.0 °F 68% 29.83 in 10.0 mi SE 8.1 mph - N/A   Clear
10:35 PM 60.8 °F 50.0 °F 68% 29.84 in 10.0 mi SE 6.9 mph - N/A   Clear
10:55 PM 60.8 °F 51.8 °F 72% 29.84 in 10.0 mi SE 5.8 mph - N/A   Clear
11:15 PM 60.8 °F 50.0 °F 68% 29.85 in 10.0 mi SE 4.6 mph - N/A   Clear
11:35 PM 57.2 °F 50.0 °F 77% 29.84 in 10.0 mi ESE 8.1 mph - N/A   Clear
11:55 PM 57.2 °F 51.8 °F 82% 29.85 in 10.0 mi SE 8.1 mph - N/A   Clear